Date String (YYYY-MM-DD hh:mm:ss) UTC,Instrument flags,absolute air pressure of the measurement (hPa),sample flow rate (lpm),inlet stack bypass flow (lpm),air temperature of the measurement (°C),ambient temperature measured by the external sensor (°C),aerosol sample conditioner tube jacket temperature (°C),OPC LED temperature (°C),internal box temperature (°C),relative humidity of the measurement (%),span deviation,mass concentration of particles derived from Lorenz-Mie calculation of OPC scattering (μg/m³),mass concentration of particles derived from Lorenz-Mie calculation of OPC scattering (μg/m³),mass concentration of particles derived from Lorenz-Mie calculation of OPC scattering (μg/m³)
DateTimeUTC,F1_M11,P_M11,Q1_M11,Q2_M11,T1_M11,T2_M11,T3_M11,T4_M11,T5_M11,U1_M11,ZSPAN_M11,X0_M11,X2_M11,X1_M11
2023-07-04 01:00:00,SystemResetWarning,0830.0,5.01,000.00,028.7,024.4,000.0,036.9,030.1,21.2,0000.0,0011.30,0004.16,0003.51
2023-07-04 01:01:00,SystemResetWarning,0829.9,5.01,000.00,028.6,024.8,000.0,036.9,029.9,20.8,0000.0,0011.07,0004.07,0003.46
2023-07-04 01:02:00,SystemResetWarning,0830.0,4.99,000.00,028.6,025.2,000.0,036.9,029.9,20.7,0000.0,0011.50,0004.03,0003.43
2023-07-04 01:03:00,SystemResetWarning,0830.0,5.00,000.00,028.6,025.7,000.0,037.0,030.0,20.7,0000.0,0011.34,0003.98,0003.40
2023-07-04 01:04:00,SystemResetWarning,0830.0,5.00,000.00,028.6,026.2,000.0,037.0,030.2,21.0,0000.0,0010.69,0003.97,0003.38
2023-07-04 01:05:00,SystemResetWarning,0830.1,5.00,000.00,028.6,026.6,000.0,037.0,030.3,20.8,0000.0,0010.68,0003.99,0003.38
2023-07-04 01:06:00,SystemResetWarning,0830.1,5.00,000.00,028.7,027.0,000.0,037.0,030.3,20.9,0000.0,0011.93,0004.01,0003.38
2023-07-04 01:07:00,SystemResetWarning,0830.2,5.00,000.00,028.7,027.3,000.0,037.1,030.4,20.8,0000.0,0012.46,0004.00,0003.39
2023-07-04 01:08:00,SystemResetWarning,0830.2,4.99,000.00,028.8,027.4,000.0,037.1,030.5,20.6,0000.0,0011.95,0003.96,0003.37
2023-07-04 01:09:00,SystemResetWarning,0830.2,4.98,000.00,028.8,026.1,000.0,037.0,030.4,20.3,0000.0,0011.40,0003.92,0003.37
2023-07-04 01:10:00,SystemResetWarning,0830.3,5.01,000.00,028.7,025.4,000.0,036.9,030.3,20.4,0000.0,0011.05,0003.90,0003.37
2023-07-04 01:11:00,SystemResetWarning,0830.4,5.01,000.00,028.7,025.6,000.0,036.9,030.2,20.6,0000.0,0010.66,0003.88,0003.37
2023-07-04 01:12:00,SystemResetWarning,0830.5,5.01,000.00,028.6,025.9,000.0,037.0,030.1,20.7,0000.0,0010.65,0003.89,0003.37
2023-07-04 01:13:00,SystemResetWarning,0830.6,4.99,000.00,028.7,026.3,000.0,037.0,030.2,21.0,0000.0,0010.05,0003.91,0003.36
2023-07-04 01:14:00,SystemResetWarning,0830.7,5.01,000.00,028.7,026.7,000.0,037.0,030.3,20.5,0000.0,0009.92,0003.91,0003.35
2023-07-04 01:15:00,SystemResetWarning,0830.8,5.00,000.00,028.7,027.0,000.0,037.1,030.4,20.4,0000.0,0010.77,0003.91,0003.35
2023-07-04 01:16:00,SystemResetWarning,0830.9,5.00,000.00,028.8,027.3,000.0,037.1,030.5,20.2,0000.0,0010.72,0003.91,0003.36
2023-07-04 01:17:00,SystemResetWarning,0830.9,4.99,000.00,028.8,027.5,000.0,037.1,030.6,20.0,0000.0,0010.29,0003.91,0003.36
2023-07-04 01:18:00,SystemResetWarning,0830.9,4.98,000.00,028.8,026.2,000.0,037.0,030.4,20.1,0000.0,0010.25,0003.91,0003.36
2023-07-04 01:19:00,SystemResetWarning,0830.8,5.01,000.00,028.8,024.6,000.0,036.9,030.1,20.7,0000.0,0010.64,0003.99,0003.36
2023-07-04 01:20:00,SystemResetWarning,0830.6,5.01,000.00,028.7,024.5,000.0,036.9,030.0,20.6,0000.0,0011.65,0004.06,0003.36
2023-07-04 01:21:00,SystemResetWarning,0830.5,5.00,000.00,028.6,024.9,000.0,036.9,029.9,18.3,0000.0,0011.77,0004.11,0003.37
2023-07-04 01:22:00,SystemResetWarning,0830.6,5.00,000.00,028.5,025.3,000.0,036.9,030.0,17.4,0000.0,0011.88,0004.15,0003.39
2023-07-04 01:23:00,SystemResetWarning,0830.6,5.01,000.00,028.6,025.8,000.0,037.0,030.1,17.4,0000.0,0012.01,0004.19,0003.40
2023-07-04 01:24:00,SystemResetWarning,0830.5,5.00,000.00,028.6,026.3,000.0,037.0,030.2,17.4,0000.0,0013.18,0004.25,0003.41
2023-07-04 01:25:00,SystemResetWarning,0830.4,5.00,000.00,028.6,026.6,000.0,037.0,030.2,17.2,0000.0,0014.67,0004.28,0003.40
2023-07-04 01:26:00,SystemResetWarning,0830.3,5.00,000.00,028.6,026.9,000.0,037.0,030.3,17.3,0000.0,0014.96,0004.28,0003.39
2023-07-04 01:27:00,SystemResetWarning,0830.4,5.00,000.00,028.7,027.2,000.0,037.1,030.4,17.7,0000.0,0015.05,0004.22,0003.36
2023-07-04 01:28:00,SystemResetWarning,0830.4,5.00,000.00,028.7,027.4,000.0,037.1,030.5,18.1,0000.0,0015.33,0004.22,0003.33
2023-07-04 01:29:00,SystemResetWarning,0830.3,4.99,000.00,028.8,027.6,000.0,037.1,030.5,18.6,0000.0,0014.89,0004.21,0003.30
2023-07-04 01:30:00,SystemResetWarning,0830.2,4.99,000.00,028.8,026.7,000.0,037.0,030.4,19.0,0000.0,0015.32,0004.21,0003.26
2023-07-04 01:31:00,SystemResetWarning,0830.1,5.02,000.00,028.7,025.4,000.0,037.0,030.2,19.9,0000.0,0015.29,0004.21,0003.23
2023-07-04 01:32:00,SystemResetWarning,0830.1,5.01,000.00,028.7,025.4,000.0,036.9,030.1,21.2,0000.0,0015.66,0004.19,0003.17
2023-07-04 01:33:00,SystemResetWarning,0830.2,4.99,000.00,028.6,025.7,000.0,036.9,030.0,21.4,0000.0,0016.07,0004.17,0003.10
2023-07-04 01:34:00,SystemResetWarning,0830.1,5.00,000.00,028.6,026.0,000.0,037.0,030.1,21.6,0000.0,0017.79,0004.19,0003.00
2023-07-04 01:35:00,SystemResetWarning,0830.3,5.00,000.00,028.6,026.4,000.0,037.0,030.2,22.2,0000.0,0020.39,0004.23,0002.93
2023-07-04 01:36:00,SystemResetWarning,0830.4,5.01,000.00,028.7,026.7,000.0,037.1,030.3,24.4,0000.0,0020.40,0004.25,0002.88
2023-07-04 01:37:00,SystemResetWarning,0830.5,5.01,000.00,028.7,027.0,000.0,037.1,030.4,25.6,0000.0,0019.40,0004.27,0002.84
2023-07-04 01:38:00,SystemResetWarning,0830.5,4.99,000.00,028.7,027.2,000.0,037.1,030.4,25.3,0000.0,0019.12,0004.32,0002.81
2023-07-04 01:39:00,SystemResetWarning,0830.8,5.00,000.00,028.8,027.4,000.0,037.1,030.5,22.7,0000.0,0020.27,0004.41,0002.84
2023-07-04 01:40:00,SystemResetWarning,0830.9,4.98,000.00,028.8,026.8,000.0,037.1,030.4,21.8,0000.0,0020.36,0004.48,0002.87
2023-07-04 01:41:00,SystemResetWarning,0830.9,5.00,000.00,028.7,025.3,000.0,037.0,030.2,22.3,0000.0,0019.71,0004.42,0002.89
2023-07-04 01:42:00,SystemResetWarning,0831.1,5.01,000.00,028.7,025.1,000.0,036.9,030.1,21.5,0000.0,0018.83,0004.34,0002.90
2023-07-04 01:43:00,SystemResetWarning,0831.1,4.99,000.00,028.6,025.4,000.0,037.0,030.0,21.8,0000.0,0018.22,0004.28,0002.93
2023-07-04 01:44:00,SystemResetWarning,0831.1,4.99,000.00,028.6,025.8,000.0,037.0,030.1,23.2,0000.0,0017.71,0004.26,0003.01
2023-07-04 01:45:00,SystemResetWarning,0831.2,5.00,000.00,028.6,026.2,000.0,037.0,030.2,21.3,0000.0,0016.40,0004.23,0003.09
2023-07-04 01:46:00,SystemResetWarning,0831.3,5.01,000.00,028.6,026.6,000.0,037.0,030.3,22.6,0000.0,0012.51,0004.13,0003.16
2023-07-04 01:47:00,SystemResetWarning,0831.3,5.00,000.00,028.7,026.9,000.0,037.1,030.3,21.8,0000.0,0010.63,0004.08,0003.21
2023-07-04 01:48:00,SystemResetWarning,0831.3,5.00,000.00,028.7,027.2,000.0,037.1,030.4,21.9,0000.0,0010.49,0004.08,0003.26
2023-07-04 01:49:00,SystemResetWarning,0831.3,5.00,000.00,028.8,027.5,000.0,037.1,030.5,21.9,0000.0,0010.13,0004.06,0003.32
2023-07-04 01:50:00,SystemResetWarning,0831.2,5.00,000.00,028.8,027.7,000.0,037.2,030.6,21.3,0000.0,0008.76,0004.01,0003.36
2023-07-04 01:51:00,SystemResetWarning,0831.0,4.99,000.00,028.9,027.3,000.0,037.2,030.6,21.7,0000.0,0007.59,0003.95,0003.41
2023-07-04 01:52:00,SystemResetWarning,0830.5,5.01,000.00,028.9,025.6,000.0,037.0,030.4,20.9,0000.0,0007.59,0003.97,0003.47
2023-07-04 01:53:00,SystemResetWarning,0830.2,5.00,000.00,028.8,025.2,000.0,037.0,030.3,21.3,0000.0,0007.64,0003.96,0003.52
2023-07-04 01:54:00,SystemResetWarning,0829.9,5.00,000.00,028.7,025.4,000.0,037.0,030.1,21.9,0000.0,0007.89,0003.99,0003.55
2023-07-04 01:55:00,SystemResetWarning,0829.8,5.01,000.00,028.7,025.8,000.0,037.1,030.2,21.1,0000.0,0007.87,0003.99,0003.57
2023-07-04 01:56:00,SystemResetWarning,0829.8,5.00,000.00,028.7,026.2,000.0,037.1,030.2,20.8,0000.0,0007.70,0003.92,0003.55
2023-07-04 01:57:00,SystemResetWarning,0829.9,4.99,000.00,028.7,026.6,000.0,037.1,030.3,20.3,0000.0,0007.63,0003.86,0003.50
2023-07-04 01:58:00,SystemResetWarning,0830.0,4.99,000.00,028.7,026.9,000.0,037.2,030.4,20.7,0000.0,0007.64,0003.82,0003.49
2023-07-04 01:59:00,SystemResetWarning,0830.5,5.00,000.00,028.8,027.2,000.0,037.2,030.5,20.6,0000.0,0007.36,0003.77,0003.46
